Tracking 28920 objects as of 26-May-2024
HD Live streaming from Space Station
objects crossing your sky now

STARLINK-11085

Track STARLINK-11085 now!
10-day predictions
STARLINK-11085 is classified as:


NORAD ID: 59425
Int'l Code: 2024-065E
Perigee: 361.4 km
Apogee: 362.9 km
Inclination: 53.2 °
Period: 91.6 minutes
Semi major axis: 6733 km
RCS: Unknown
Launch date: April 7, 2024
Source: United States (US)
Launch site: AIR FORCE WESTERN TEST RANGE (AFWTR)
Your satellite tracking list
Your tracking list is empty




NASA's NSSDC Master Catalog

Two Line Element Set (TLE):
1 59425U 24065E   24147.21879974 -.00018920  00000-0 -14139-3 0  9990
2 59425  53.1569  79.2467 0001133 119.1979 240.9153 15.71368600  8870
Source of the keplerian elements: AFSPC